Home > Weather > Greensboro > Past weeks

Flag for U.S.A. Weather for the Past 2 Weeks in Greensboro, North Carolina, U.S.A.

Now
34 °F

Overcast.


Feels Like: 23 °F
Forecast: 29 / 41 °F
Wind: 17 mph from Northwest

Location: Piedmont Triad International Airport

Current Time: Feb 9, 2016 at 6:24:49 PM

Latest Report: Feb 9, 2016 at 4:54 PM


Visibility: 10 mi

Pressure: 29.71 "Hg

Humidity: 37%

Dew point: 10 °F

Location of GreensboroLocation

Historic Weather in Greensboro — Graph

°F

Greensboro Temperature Yesterday

Maximum temperature yesterday: 50 °F (at 12:54 PM)
Minimum temperature yesterday: 28 °F (at 5:54 AM)
Average temperature yesterday: 38 °F

High & Low Weather Summary for the Past Weeks

 TemperatureHumidityPressure
High68 °F (Feb 1, 3:54 PM)100% (Feb 1, 9:54 PM)30.44 "Hg (Feb 1, 9:54 PM)
Low26 °F (Jan 30, 3:54 AM)22% (Feb 6, 4:54 PM)29.60 "Hg (Feb 9, 2:54 AM)
Average45 °F64%30.02 "Hg
* Reported Jan 25 4:54 PM — Feb 9 4:54 PM, Greensboro, Weather by CustomWeather, © 2016

Note: Actual official high and low records may vary slightly from our data, if they occured in-between our weather recording intervals... More about our weather records

Advertising

Greensboro Weather History for the Previous 24 Hours

 ConditionsComfort  
Time TempWeatherWind HumidityBarometerVisibility
4:54 PM
Tue, Feb 9
34 °FOvercast.17 mph37%29.71 "Hg10 mi
3:54 PM36 °FMostly cloudy.16 mph37%29.67 "Hg10 mi
2:54 PM36 °FMostly cloudy.18 mph42%29.64 "Hg10 mi
1:54 PM38 °FMostly cloudy.15 mph41%29.62 "Hg10 mi
12:54 PM37 °FMostly cloudy.10 mph41%29.64 "Hg10 mi
11:54 AM39 °FBroken clouds.16 mph39%29.66 "Hg10 mi
9:54 AM36 °FPartly sunny.12 mph54%29.66 "Hg10 mi
8:54 AM35 °FOvercast.10 mph61%29.66 "Hg10 mi
7:54 AM34 °FOvercast.9 mph73%29.65 "Hg10 mi
6:54 AM34 °FOvercast.10 mph73%29.64 "Hg10 mi
5:54 AM34 °FMostly cloudy.6 mph76%29.62 "Hg10 mi
4:54 AM34 °FPassing clouds.6 mph76%29.60 "Hg10 mi
3:54 AM34 °FOvercast.6 mph76%29.60 "Hg10 mi
2:54 AM34 °FOvercast.6 mph79%29.60 "Hg10 mi
1:54 AM33 °FOvercast.3 mph82%29.61 "Hg10 mi
12:54 AM31 °FPassing clouds.No wind92%29.62 "Hg10 mi
11:54 PM
Mon, Feb 8
33 °FPassing clouds.3 mph88%29.63 "Hg10 mi
10:54 PM36 °FPassing clouds.3 mph85%29.64 "Hg10 mi
9:54 PM35 °FPartly cloudy.No wind88%29.66 "Hg10 mi
8:54 PM35 °FPassing clouds.5 mph96%29.67 "Hg10 mi
7:54 PM37 °FPassing clouds.3 mph89%29.67 "Hg10 mi
6:54 PM39 °FPassing clouds.No wind79%29.66 "Hg10 mi
Weather by CustomWeather, © 2016

See weather overviewHow to use our weather pages